Meteo Giornale » Osservazioni meteo Ghana » Accra
ore: 19:00 - Osservazioni Meteo Accra
Lat. 5° 36' N Lon. 0° 10' W Alt. 68 metri s.l.m.
25 °C
Sereno
Temp. 24 Ore
0 °C
30 °C
Sud/Sud-Ovest
20.3 Km/h
Dew point 23 °C
Umidità 88 %
Visibilità 10 Km
Il sole sorge alle ore 05:54
Il sole tramonta alle ore 18:07
| Data e Ora | Cielo e Fenomeni | T °C | DP °C | Um. % | Pres. hPa | Vis. km | Vento km/h | |
|---|---|---|---|---|---|---|---|---|
| Oggi h: 19:00 | Sereno | 25 | 23 | 88 | 1012 | 10 | S/SO 20.3 | |
| Oggi h: 18:00 | Poco Nuvoloso | 26 | 22 | 78 | 1012 | 10 | S 22.2 | |
| Oggi h: 17:00 | Poco Nuvoloso | 27 | 22 | 74 | 1012 | 10 | S 20.3 | |
| Oggi h: 16:00 | Poco Nuvoloso | 28 | 22 | 69 | 1012 | 10 | S 18.5 | |
| Oggi h: 15:00 | Poco Nuvoloso | 28 | 22 | 69 | 1012 | 10 | S 20.3 | |
| Oggi h: 14:00 | Poco Nuvoloso | 29 | 22 | 66 | 1013 | 10 | S 20.3 | |
| Oggi h: 13:00 | Nuvoloso | 29 | 22 | 66 | 1013 | 10 | S 18.5 | |
| Oggi h: 12:00 | Coperto | 29 | 22 | 66 | 1014 | 10 | S/SO 18.5 | |
| Oggi h: 11:00 | Molto Nuvoloso | 30 | 23 | 66 | 1015 | 10 | SO 14.8 | |
| Oggi h: 09:00 | Coperto | 27 | 22 | 74 | 1015 | 8 | N 9.3 | |
| Oggi h: 08:00 | Foschia | 26 | 22 | 78 | 1015 | 5 | O/SO 7.4 | |
| Oggi h: 07:00 | Sereno | 25 | 22 | 83 | 1014 | 8 | O/SO 9.3 | |
| Oggi h: 06:00 | ventoso | 0 | 0 | 69 | 0 | 11 | O/SO 9.3 | |
| Oggi h: 05:00 | Coperto | 25 | 23 | 88 | 1013 | 10 | O/SO 11.1 | |
| Oggi h: 04:00 | Coperto | 25 | 23 | 88 | 1012 | 10 | S/SO 13 | |
| Oggi h: 03:00 | Coperto | 25 | 23 | 88 | 1012 | 10 | S/SO 13 | |
| Oggi h: 02:00 | Coperto | 25 | 23 | 88 | 1012 | 10 | SO 14.8 | |
| Oggi h: 01:00 | Coperto | 25 | 23 | 88 | 1013 | 10 | S/SO 14.8 | |
| Oggi h: 00:00 | Coperto | 25 | 23 | 88 | 1013 | 10 | S/SO 14.8 | |
| Ieri h: 23:00 | Coperto | 25 | 23 | 88 | 1014 | 10 | S/SO 14.8 | |
| Ieri h: 22:00 | Molto Nuvoloso | 25 | 23 | 88 | 1014 | 10 | SO 11.1 | |
| Ieri h: 21:00 | Coperto | 25 | 23 | 88 | 1013 | 10 | SO 14.8 | |
| Ieri h: 20:00 | Molto Nuvoloso | 25 | 23 | 88 | 1012 | 10 | S/SO 14.8 | |



